Tracking 31027 objects as of 19-Jul-2025
HD Live streaming from Space Station
objects crossing your sky now

NOAA 16 DEB

Track NOAA 16 DEB now!
10-day predictions


NORAD ID: 41091
Int'l Code: 2000-055BA
Perigee: 765.2 km
Apogee: 827.9 km
Inclination: 99.0 °
Period: 100.6 minutes
Semi major axis: 7167 km
RCS: Unknown
Launch date: September 21, 2000
Source: United States (US)
Launch site: AIR FORCE WESTERN TEST RANGE (AFWTR)

Note: This is SATELLITE DEBRIS
Your satellite tracking list
Your tracking list is empty




NASA's NSSDC Master Catalog

Two Line Element Set (TLE):
1 41091U 00055BA  25199.23643969  .00005356  00000-0  20429-2 0  9991
2 41091  98.9657 311.8424 0043766  73.5270 287.0715 14.30700458495611
Source of the keplerian elements: AFSPC